Torna al catalogo

BREEZE-M DEB

TANK

AttivoHEO
NORAD 40884·DEBRIS·🇷🇺 Russia

Lanciato Aug 28, 2015 da Baikonur Cosmodrome

Loading…

Prossimi Passaggi (prossime 24 ore)

TLE

AggiornatoSource: Space-Track

Epoca: Sep 13, 2026, 21:41 UTC

1 40884U 15042C   26256.90410551  .00000506  00000-0  25485-3 0  9990
2 40884  50.7797 309.8862 5113938  94.3364 323.1090  5.36462558213497

Traccia BREEZE-M DEB in tempo reale con AllMySat

Download on the App Store